DW0231 Weather Reports


Display with metric or nautical units.
time (UTC)temp
F
wind
direction
speed
MPH
gust
MPH
rain 1hr
in
rain 24hr
in
rain mn
in
humidity
%
barometer
mb
20260502123042 42 225 0.0 0.0 0.00 0.00 0.00 55 1018.1
20260502121541 42 225 0.0 0.0 0.00 0.00 0.00 55 1018.0
20260502114521 42 225 0.0 0.0 0.00 0.00 0.00 54 1018.0
20260502113009 43 225 0.0 0.0 0.00 0.00 0.00 54 1018.1
20260502111606 43 225 0.0 0.0 0.00 0.00 0.00 54 1018.0
20260502110044 43 225 0.0 0.0 0.00 0.00 0.00 53 1017.9
20260502104539 43 225 0.0 0.0 0.00 0.00 0.00 53 1017.9
20260502103029 44 225 0.0 0.0 0.00 0.00 0.00 51 1018.0
20260502101515 45 225 0.0 0.0 0.00 0.00 0.00 49 1017.7
20260502091516 44 225 0.0 0.0 0.00 0.00 0.00 52 1017.6
20260502071520 46 228 0.0 0.0 0.00 0.00 0.00 54 1017.9
20260502064556 46 228 0.0 0.0 0.00 0.00 0.00 54 1017.6
20260502063032 46 228 0.0 0.0 0.00 0.00 0.00 53 1017.6
20260502061614 47 228 0.0 0.0 0.00 0.00 0.00 53 1017.5
20260502060050 48 228 0.0 0.0 0.00 0.00 0.00 53 1017.4
20260502054534 48 227 0.0 0.0 0.00 0.00 0.00 52 1017.4
20260502053015 48 228 0.0 0.0 0.00 0.00 0.00 54 1017.3
20260502051512 48 227 0.0 0.0 0.00 0.00 0.00 55 1017.3
20260502050047 48 227 0.0 0.0 0.00 0.00 0.00 54 1017.1
20260502044537 49 227 0.0 0.0 0.00 0.00 0.00 53 1017.0
20260502043104 49 227 0.0 0.0 0.00 0.00 0.00 52 1017.0
20260502041606 49 228 0.0 0.0 0.00 0.00 0.00 53 1017.0
20260502040054 50 227 0.0 0.0 0.00 0.00 0.00 50 1016.9
20260502034538 51 228 0.0 0.0 0.00 0.00 0.00 49 1016.7
20260502033019 52 228 0.0 0.0 0.00 0.00 0.00 46 1016.5
20260502031507 53 228 0.0 0.0 0.00 0.00 0.00 43 1016.4
20260502030111 54 227 0.0 0.0 0.00 0.00 0.00 43 1015.9
20260502024557 56 227 0.0 0.0 0.00 0.00 0.00 38 1016.0
20260502023038 59 228 0.0 0.0 0.00 0.00 0.00 37 1016.0
20260502021519 60 228 0.0 0.0 0.00 0.00 0.00 34 1015.8
20260502020113 61 323 0.0 0.0 0.00 0.00 0.00 32 1015.5
20260502014554 62 311 2.0 0.0 0.00 0.00 0.00 31 1015.3
20260502013037 63 276 1.0 0.0 0.00 0.00 0.00 30 1015.1
20260502011517 63 348 1.0 0.0 0.00 0.00 0.00 31 1015.1
20260502004542 64 15 2.0 0.0 0.00 0.00 0.00 30 1015.0
20260502003027 64 29 3.0 0.0 0.00 0.00 0.00 30 1015.0
20260502001528 64 307 3.0 0.0 0.00 0.00 0.00 30 1015.2
20260502000006 64 355 3.0 0.0 0.00 0.00 0.00 29 1015.4
20260501234557 65 21 3.0 0.0 0.00 0.00 0.00 29 1015.6
20260501233049 66 288 3.0 0.0 0.00 0.00 0.00 27 1015.6
20260501231553 66 346 2.0 0.0 0.00 0.00 0.00 27 1015.7
20260501230037 67 349 3.0 0.0 0.00 0.00 0.00 26 1015.8
20260501224517 67 337 2.0 0.0 0.00 0.00 0.00 25 1016.0
20260501223042 66 229 3.0 0.0 0.00 0.00 0.00 27 1016.1
20260501221532 67 225 2.0 0.0 0.00 0.00 0.00 25 1016.3
20260501220017 65 5 3.0 0.0 0.00 0.00 0.00 26 1016.5
20260501214555 65 269 3.0 0.0 0.00 0.00 0.00 24 1016.8
20260501213039 65 198 3.0 0.0 0.00 0.00 0.00 25 1017.0
20260501211512 64 248 3.0 0.0 0.00 0.00 0.00 26 1017.1
20260501210054 65 227 4.0 0.0 0.00 0.00 0.00 26 1017.0
20260501204527 64 225 3.0 0.0 0.00 0.00 0.00 27 1017.2
20260501203049 64 205 4.0 0.0 0.00 0.00 0.00 25 1017.2
20260501201546 64 360 2.0 0.0 0.00 0.00 0.00 25 1017.3
20260501200038 65 325 2.0 0.0 0.00 0.00 0.00 24 1017.4
20260501194532 64 213 3.0 0.0 0.00 0.00 0.00 24 1017.4
20260501193023 65 334 2.0 0.0 0.00 0.00 0.00 23 1017.4
20260501191518 64 243 2.0 0.0 0.00 0.00 0.00 25 1017.5
20260501190001 63 211 4.0 0.0 0.00 0.00 0.00 25 1017.5
20260501184555 63 360 2.0 0.0 0.00 0.00 0.00 26 1017.5
20260501183034 62 248 2.0 0.0 0.00 0.00 0.00 26 1017.8
20260501181525 61 355 3.0 0.0 0.00 0.00 0.00 27 1017.9
20260501180057 61 179 3.0 0.0 0.00 0.00 0.00 27 1018.0
20260501174538 60 317 2.0 0.0 0.00 0.00 0.00 27 1018.2
20260501173025 59 332 3.0 0.0 0.00 0.00 0.00 29 1018.3
20260501171610 58 200 2.0 0.0 0.00 0.00 0.00 32 1018.3
20260501170047 57 200 2.0 0.0 0.00 0.00 0.00 36 1018.5
20260501164524 57 170 2.0 0.0 0.00 0.00 0.00 37 1018.5
20260501163100 57 194 1.0 0.0 0.00 0.00 0.00 37 1018.4
20260501161558 56 201 1.0 0.0 0.00 0.00 0.00 39 1018.7
20260501160033 54 200 0.0 0.0 0.00 0.00 0.00 41 1018.7
20260501154527 52 201 1.0 0.0 0.00 0.00 0.00 43 1018.6
20260501153002 51 95 1.0 0.0 0.00 0.00 0.00 45 1018.6
20260501151506 49 89 1.0 0.0 0.00 0.00 0.00 48 1018.5
20260501150052 48 89 1.0 0.0 0.00 0.00 0.00 48 1018.5
20260501144543 47 89 1.0 0.0 0.00 0.00 0.00 50 1018.5
20260501143035 45 64 0.0 0.0 0.00 0.00 0.00 55 1018.4
20260501141533 44 64 0.0 0.0 0.00 0.00 0.00 63 1018.5
20260501140017 43 64 0.0 0.0 0.00 0.00 0.00 67 1018.5
20260501134609 41 64 0.0 0.0 0.00 0.00 0.00 69 1018.3